User: anonymous   Login
Location: Unspecified
(0.0000°N, 0.0000°E)
Time: 04:23:14
(UTC+02:00)
Language:

Meteor 1-31 Rocket - Orbit

View from above orbital plane
View from above orbital plane
View from above satellite
View from above satellite

Ground track
Ground track

The orbit data is extracted from the following two-line orbital elements,

1 12586U 81065B   17146.59136912 +.00000199 +00000-0 +16156-4 0  9999
2 12586 097.4954 128.6832 0017424 275.5449 084.3793 15.09944773949078
Epoch (UTC): 26 May 2017 14:11:34
Eccentricity: 0.0017424
inclination: 97.4954°
perigee height: 524 km
apogee height: 548 km
right ascension of ascending node: 128.6832°
argument of perigee: 275.5449°
revolutions per day: 15.09944773
mean anomaly at epoch: 84.3793°
orbit number at epoch: 94907

The dashed part of the orbit path shows where the satellite is in the earth's shadow,  

DLR